Weather History for Colby, KS

Change the Weather History Date:

Thursday, November 29, 2012

  Actual Average (KGLD) Record (KGLD)
Temperature  
Mean Temperature 46 °F 33 °F  
Max Temperature 69 °F 46 °F 75 °F (2003)
Min Temperature 23 °F 20 °F -3 °F (1896)
Degree Days  
Heating Degree Days 19 32  
Month to date heating degree days 746  
Since 1 July heating degree days 1286  
Cooling Degree Days 0 0  
Month to date cooling degree days 0  
Year to date cooling degree days 941  
Moisture  
Dew Point 21 °F    
Average Humidity 48    
Maximum Humidity 86    
Minimum Humidity 20    
Precipitation  
Precipitation 0.00 in 0.02 in 0.38 in (1981)
Month to date precipitation 0.69  
Year to date precipitation 19.18  
Snow  
Snow - 0.20 in - ()
Month to date snowfall 4.4  
Since 1 July snowfall 7.0  
Since 1 September snowfall 7.0  
Snow Depth -    
Sea Level Pressure  
Sea Level Pressure 29.98 in    
Wind  
Wind Speed 8 mph ()    
Max Wind Speed 16 mph    
Max Gust Speed 21 mph    
Visibility 10.0 miles    
Events      
T = Trace of Precipitation, MM = Missing Value Source: Averaged Metar Reports

Daily Weather History Graph

Daily Weather History Graph

Search for Another Location

Airport:

Trip Planner

Search our weather history database for the weather conditions in past years. The results will help you decide how hot, cold, wet, or windy it might be!

Date:

Astronomy

Nov. 29, 2012 Rise Set
Actual Time 7:43 AM CST 5:21 PM CST
Civil Twilight 7:14 AM CST 5:51 PM CST
Nautical Twilight 6:40 AM CST 6:24 PM CST
Astronomical Twilight 6:08 AM CST 6:56 PM CST
Moon 6:25 PM CST (11/29) 8:31 AM CST (11/29)
Length of Visible Light 10h 36m
Length of Day
9h 37m
Full, 99% of the Moon is Illuminated
Nov 29
Full
Dec 6
Last Quarter
Dec 13
New
Dec 19
First Quarter
Dec 28
Full

Hourly Weather History & Observations

Time (CST) Temp. Windchill Dew Point Humidity Pressure Visibility Wind Dir Wind Speed Gust Speed Precip Events Conditions
12:15 AM 23.0 °F 13.9 °F 19.4 °F 86% 30.03 in 10.0 mi SW 8.1 mph - N/A   Clear
12:35 AM 23.0 °F 13.1 °F 19.4 °F 86% 30.02 in 10.0 mi SW 9.2 mph - N/A   Clear
12:55 AM 23.0 °F 13.1 °F 19.4 °F 86% 30.02 in 10.0 mi WSW 9.2 mph - N/A   Clear
1:15 AM 23.0 °F 13.9 °F 19.4 °F 86% 30.02 in 10.0 mi WSW 8.1 mph - N/A   Clear
1:35 AM 23.0 °F 13.1 °F 19.4 °F 86% 30.00 in 10.0 mi West 9.2 mph - N/A   Clear
1:55 AM 23.0 °F 13.1 °F 19.4 °F 86% 29.99 in 10.0 mi West 9.2 mph - N/A   Clear
2:15 AM 23.0 °F 12.4 °F 19.4 °F 86% 29.99 in 10.0 mi West 10.4 mph - N/A   Clear
2:35 AM 26.6 °F 15.7 °F 21.2 °F 80% 29.99 in 10.0 mi West 12.7 mph - N/A   Clear
2:55 AM 28.4 °F 18.0 °F 21.2 °F 74% 29.99 in 10.0 mi WNW 12.7 mph - N/A   Clear
3:15 AM 28.4 °F 18.5 °F 21.2 °F 74% 29.99 in 10.0 mi NW 11.5 mph - N/A   Clear
3:35 AM 28.4 °F 18.0 °F 21.2 °F 74% 29.98 in 10.0 mi WNW 12.7 mph - N/A   Clear
3:55 AM 28.4 °F 19.1 °F 21.2 °F 74% 29.98 in 10.0 mi WNW 10.4 mph - N/A   Clear
4:15 AM 28.4 °F 18.5 °F 21.2 °F 74% 29.98 in 10.0 mi WNW 11.5 mph - N/A   Clear
4:35 AM 28.4 °F 18.5 °F 21.2 °F 74% 29.98 in 10.0 mi WNW 11.5 mph - N/A   Clear
4:55 AM 28.4 °F 18.5 °F 21.2 °F 74% 29.98 in 10.0 mi WNW 11.5 mph - N/A   Clear
5:15 AM 28.4 °F 18.0 °F 19.4 °F 69% 29.97 in 10.0 mi WNW 12.7 mph - N/A   Clear
5:35 AM 28.4 °F 17.5 °F 19.4 °F 69% 29.96 in 10.0 mi WNW 13.8 mph - N/A   Clear
5:55 AM 28.4 °F 17.5 °F 19.4 °F 69% 29.96 in 10.0 mi WNW 13.8 mph - N/A   Clear
6:15 AM 28.4 °F 22.2 °F 19.4 °F 69% 29.96 in 10.0 mi West 5.8 mph - N/A   Clear
6:35 AM 26.6 °F 18.2 °F 19.4 °F 74% 29.96 in 10.0 mi West 8.1 mph - N/A   Clear
6:55 AM 23.0 °F 13.9 °F 17.6 °F 80% 29.96 in 10.0 mi West 8.1 mph - N/A   Clear
7:15 AM 24.8 °F 15.3 °F 17.6 °F 74% 29.97 in 10.0 mi WNW 9.2 mph - N/A   Clear
7:35 AM 26.6 °F 17.5 °F 19.4 °F 74% 29.98 in 10.0 mi WNW 9.2 mph - N/A   Clear
7:55 AM 28.4 °F 19.1 °F 19.4 °F 69% 29.98 in 10.0 mi NW 10.4 mph - N/A   Clear
8:15 AM 30.2 °F 21.9 °F 21.2 °F 69% 29.99 in 10.0 mi WNW 9.2 mph - N/A   Clear
8:35 AM 32.0 °F 23.0 °F 21.2 °F 64% 30.01 in 10.0 mi WNW 11.5 mph - N/A   Clear
8:55 AM 32.0 °F 22.5 °F 21.2 °F 64% 30.02 in 10.0 mi WNW 12.7 mph - N/A   Clear
9:15 AM 37.4 °F 29.8 °F 21.2 °F 52% 30.02 in 10.0 mi WNW 11.5 mph - N/A   Clear
9:35 AM 41.0 °F 34.7 °F 21.2 °F 45% 30.01 in 10.0 mi NW 10.4 mph - N/A   Clear
9:55 AM 46.4 °F 41.9 °F 23.0 °F 40% 30.02 in 10.0 mi NW 9.2 mph - N/A   Clear
10:15 AM 50.0 °F - 23.0 °F 35% 30.02 in 10.0 mi NW 3.5 mph - N/A   Clear
10:35 AM 53.6 °F - 23.0 °F 30% 30.01 in 10.0 mi NW 3.5 mph - N/A   Clear
10:55 AM 55.4 °F - 24.8 °F 31% 30.01 in 10.0 mi Calm Calm - N/A   Clear
11:15 AM 59.0 °F - 26.6 °F 29% 30.01 in 10.0 mi Calm Calm - N/A   Clear
11:35 AM 60.8 °F - 26.6 °F 27% 30.00 in 10.0 mi Calm Calm - N/A   Clear
11:55 AM 60.8 °F - 26.6 °F 27% 29.99 in 10.0 mi Calm Calm - N/A   Clear
12:15 PM 62.6 °F - 24.8 °F 24% 29.98 in 10.0 mi Calm Calm - N/A   Clear
12:35 PM 62.6 °F - 24.8 °F 24% 29.97 in 10.0 mi Calm Calm - N/A   Clear
12:55 PM 64.4 °F - 26.6 °F 24% 29.96 in 10.0 mi SSE 4.6 mph - N/A   Clear
1:15 PM 66.2 °F - 26.6 °F 23% 29.95 in 10.0 mi South 3.5 mph - N/A   Clear
1:35 PM 68.0 °F - 26.6 °F 21% 29.95 in 10.0 mi South 4.6 mph - N/A   Clear
1:55 PM 68.0 °F - 26.6 °F 21% 29.95 in 10.0 mi Calm Calm - N/A   Clear
2:15 PM 68.0 °F - 26.6 °F 21% 29.94 in 10.0 mi Calm Calm - N/A   Clear
2:35 PM 69.8 °F - 26.6 °F 20% 29.93 in 10.0 mi Calm Calm - N/A   Clear
2:55 PM 69.8 °F - 26.6 °F 20% 29.93 in 10.0 mi SSW 3.5 mph - N/A   Clear
3:15 PM 69.8 °F - 26.6 °F 20% 29.93 in 10.0 mi SSW 5.8 mph - N/A   Clear
3:35 PM 69.8 °F - 26.6 °F 20% 29.93 in 10.0 mi South 4.6 mph - N/A   Clear
3:55 PM 68.0 °F - 26.6 °F 21% 29.93 in 10.0 mi SSW 5.8 mph - N/A   Clear
4:15 PM 68.0 °F - 26.6 °F 21% 29.93 in 10.0 mi South 5.8 mph - N/A   Clear
4:35 PM 66.2 °F - 24.8 °F 21% 29.93 in 10.0 mi South 4.6 mph - N/A   Clear
4:55 PM 64.4 °F - 23.0 °F 21% 29.95 in 10.0 mi South 4.6 mph - N/A   Clear
5:15 PM 60.8 °F - 23.0 °F 23% 29.95 in 10.0 mi South 6.9 mph - N/A   Clear
5:35 PM 57.2 °F - 23.0 °F 27% 29.95 in 10.0 mi SSW 9.2 mph - N/A   Clear
5:55 PM 53.6 °F - 21.2 °F 28% 29.96 in 10.0 mi SSW 6.9 mph - N/A   Clear
6:15 PM 50.0 °F - 19.4 °F 30% 29.97 in 10.0 mi South 3.5 mph - N/A   Clear
6:35 PM 46.4 °F 42.9 °F 17.6 °F 32% 29.97 in 10.0 mi SW 6.9 mph - N/A   Clear
6:55 PM 44.6 °F 40.2 °F 19.4 °F 37% 29.98 in 10.0 mi SSW 8.1 mph - N/A   Clear
7:15 PM 42.8 °F 38.0 °F 19.4 °F 39% 29.98 in 10.0 mi SW 8.1 mph - N/A   Clear
7:35 PM 41.0 °F 34.7 °F 19.4 °F 42% 29.98 in 10.0 mi SSW 10.4 mph - N/A   Clear
7:55 PM 41.0 °F 35.2 °F 19.4 °F 42% 29.98 in 10.0 mi SW 9.2 mph - N/A   Clear
8:15 PM 41.0 °F 36.4 °F 19.4 °F 42% 29.98 in 10.0 mi SW 6.9 mph - N/A   Clear
8:35 PM 42.8 °F 38.0 °F 19.4 °F 39% 29.99 in 10.0 mi SW 8.1 mph - N/A   Clear
8:55 PM 41.0 °F 35.2 °F 17.6 °F 39% 29.99 in 10.0 mi SW 9.2 mph - N/A   Clear
9:15 PM 35.6 °F 29.2 °F 15.8 °F 44% 30.00 in 10.0 mi WSW 8.1 mph - N/A   Clear
9:35 PM 35.6 °F 28.6 °F 17.6 °F 48% 29.99 in 10.0 mi WSW 9.2 mph - N/A   Clear
9:55 PM 35.6 °F 28.6 °F 15.8 °F 44% 30.00 in 10.0 mi WSW 9.2 mph - N/A   Clear
10:15 PM 37.4 °F 30.3 °F 17.6 °F 45% 30.00 in 10.0 mi WSW 10.4 mph - N/A   Clear
10:35 PM 33.8 °F 23.5 °F 15.8 °F 48% 30.02 in 10.0 mi NW 16.1 mph 20.7 mph N/A   Clear
10:55 PM 37.4 °F 28.9 °F 15.8 °F 41% 30.03 in 10.0 mi WNW 13.8 mph - N/A   Clear
11:15 PM 39.2 °F 32.0 °F 15.8 °F 39% 30.03 in 10.0 mi WNW 11.5 mph - N/A   Clear
11:35 PM 35.6 °F 29.2 °F 14.0 °F 41% 30.03 in 10.0 mi West 8.1 mph - N/A   Clear
11:55 PM 37.4 °F 32.1 °F 14.0 °F 38% 30.03 in 10.0 mi NW 6.9 mph - N/A   Clear